cubair logo

For once you have tasted flight you will walk the earth with your eyes turned skywards,
for there you have been and there you will long to return.


"Leonardo da Vinci"

Welcome To CubAir Flight!

Cub Air Flight was founded in 2006, by Steve and Sharon Krog. Cub Air Flight school uses vintage Piper J3 Cub aircraft to instruct in, following a philosophy that “old school is still cool.” Cub Air Flight believes that these fine classic airplanes make better pilots by requiring more attention and flying skill than newer airplanes. We at Cub Air Flight hold that flying a vintage airplane is as much an art as it is a science.

The Piper J3 Cub is revered among aviators as a truly classic and iconic airplane. It has served as a trainer to more pilots than almost any airplane, earning a reputation as easy to fly but yet challenging enough to force students to continually better themselves. Cub Air uses two J3 Cubs, restored and maintained with the same attention to detail as a lovingly restored classic car. Cub Air also uses a Piper Cherokee for training requiring an aircraft with more advanced instruments.

Come fly with us and feel the freedom of
flying, the way it's supposed to be!


"Old School Is Still Cool!"

 

Our Instructors

Steve Krog

Find Us Here!

Hartford Municipal

Airport (KHXF)

4200 Highway U

Hartford, WI 53027

Our Staff

Steve Krog
Sharon Krog
Jamie Weber
Chris Hibben

Oshkosh Weather

[Source: ADDS]
METAR
KOSH 251453Z 29018G23KT 4SM UP FEW021 BKN035 OVC055 M08/M12 A2973 RMK AO2 UPB1354E03B37SNE1354B03E37 SLP086 P0000 60000 T10831122 51023 =
TAF

West Bend Weather

[Source: ADDS]
METAR
KETB 251535Z AUTO 29007KT 3SM -SN BKN017 OVC025 M07/M10 A2974 RMK AO2 =
TAF

Juneau Weather

[Source: ADDS]
METAR
KUNU 251535Z AUTO 29004KT 4SM -SN BKN019 OVC024 M09/M13 A2978 RMK AO2 T10921128 =
TAF

Fond Du Lac Weather

[Source: ADDS]
METAR
KFLD 251453Z AUTO 30018G26KT 6SM UP BKN035 M08/M13 A2974 RMK AO2 PK WND 30027/1358 UPB04E14B32SNE04B39E45 SLP082 P0000 60000 T10781128 53015 =
TAF